Location: St. Louis
(38.6270°N, 90.1994°W)
Time: 05:59:05
(UTC-06:00)

Vanguard 2 - Pass Details

Date: 07 December 2021
Orbit: 553 x 2936 km, 32.9° (Epoch: 19 January)

Event Time Altitude Azimuth Distance (km) Brightness Sun altitude
Rises 19:12:52 0° 257° (WSW) 4,325 12.6 -29.2°
Reaches altitude 10° 19:18:25 10° 227° (SW) 3,919 11.7 -30.3°
Maximum altitude 19:21:38 12° 209° (SSW) 4,083 11.6 -30.9°
Drops below altitude 10° 19:25:18 10° 192° (SSW) 4,551 11.6 -31.6°
Sets 19:33:38 0° 166° (SSE) 6,173 12.1 -33.3°
